Regional Weather Roundup
Issued by NWS

Home | Current Version | Previous Version | Text Only | Print | Product List | Glossary On
Versions: 1 2 3 4 5 6 7 8 9 10 11 12 13 14 15 16 17 18 19 20 21 22 23 24 25 26 27 28 29 30 31 32 33 34 35 36 37 38 39 40 41 42 43 44 45 46 47 48 49 50
000
ASUS43 KMKX 021300
RWRWI

WISCONSIN REGIONAL WEATHER ROUNDUP
NATIONAL WEATHER SERVICE MILWAUKEE/SULLIVAN WI
800 AM CDT SUN AUG 02 2015

NOTE: "FAIR" INDICATES FEW OR NO CLOUDS BELOW 12,000 FEET WITH NO
SIGNIFICANT WEATHER AND/OR OBSTRUCTIONS TO VISIBILITY.

WIZ001-002-006>008-014>016-023>028-021400-
NORTHWEST WISCONSIN

CITY           SKY/WX    TMP DP  RH WIND       PRES   REMARKS
SUPERIOR ARPT  PTSUNNY   66  61  84 CALM      29.63F
ASHLAND        CLOUDY    69  66  90 S5        29.64F
HAYWARD        PTSUNNY   69  64  84 CALM      29.66F
SIREN          PTSUNNY   64  62  93 CALM      29.67S
CUMBERLAND     MOSUNNY   66  64  94 CALM      29.68R
RICE LAKE      MOSUNNY   67  64  90 S8        29.70R
CHETEK         MOSUNNY   67  65  94 S5        29.69S
LADYSMITH      CLOUDY    67  65  92 S8        29.69S
EAU CLAIRE     NOT AVBL
MENOMONIE      MOSUNNY   71  65  82 S5        29.69F
NEW RICHMOND   MOSUNNY   70  66  87 S9        29.66F
OSCEOLA        MOSUNNY   69  69 100 NE3       29.68F
$$

WIZ003>005-009-010-017-018-021400-
NORTH CENTRAL WISCONSIN

CITY           SKY/WX    TMP DP  RH WIND       PRES   REMARKS
MANITOWISH WTR CLOUDY    63  63  97 S6        29.69F
ARBOR VITAE      N/A     65  63  94 W6        29.71R
WOODRUFF         N/A     65  63  94 W6        29.71R
RHINELANDER    TSTM      63  60  90 NW8G25    29.72R
EAGLE RIVER      N/A     66  64  96 CALM      29.68F
LAND O LAKES   CLOUDY    65  59  79 CALM      29.68F
PHILLIPS       MOSUNNY   61  61  98 NW3       29.63F
TOMAHAWK       LGT RAIN  64  61  91 NW9G22    29.72S
MEDFORD        CLOUDY    66  65  96 S6        29.70F
MERRILL        NOT AVBL
$$

WIZ029-030-035-036-043>047-021400-
CENTRAL WISCONSIN

CITY           SKY/WX    TMP DP  RH WIND       PRES   REMARKS
WAUSAU         PTSUNNY   70  67  90 NW5       29.70S
MOSINEE        CLOUDY    70  68  94 SW6       29.73R
MARSHFIELD     CLOUDY    71  66  84 W8        29.73R
STEVENS POINT  PTSUNNY   71  67  88 SW9       29.72R
WAUPACA        MOSUNNY   72  69  89 SW6       29.71S
WAUTOMA        NOT AVBL
WISC RAPIDS    PTSUNNY   74  66  76 W9        29.73R
CAMP DOUGLAS   NOT AVBL
$$

WIZ011>013-019>022-031-037>040-048>050-021400-
NORTHEAST WISCONSIN

CITY           SKY/WX    TMP DP  RH WIND       PRES   REMARKS
ANTIGO         MOSUNNY   66  66  97 W8        29.73R
SHAWANO        MOSUNNY   71  66  84 SW6       29.70S
OCONTO         MOSUNNY   71  70  99 SW8       29.67R
STURGEON BAY   PTSUNNY   75  66  73 SW15G23   29.71R
GREEN BAY      MOSUNNY   74  69  85 SW10      29.70S
MANITOWOC      NOT AVBL
APPLETON       PTSUNNY   73  68  83 SW13      29.71F
CLINTONVILLE   MOSUNNY   70  66  88 SW7       29.69F
OSHKOSH        MOSUNNY   73  67  81 SW12      29.71F
$$

WIZ032>034-041-042-053>061-021400-
SOUTHWEST WISCONSIN

CITY           SKY/WX    TMP DP  RH WIND       PRES   REMARKS
LA CROSSE      SUNNY     77  69  76 SE10      29.70F
SPARTA         MOSUNNY   74  65  72 S7        29.71F
VIROQUA        SUNNY     73  69  89 SW9       29.76F
BOSCOBEL       PTSUNNY   76  69  79 SW7       29.77S
PRAIRIE DU CHI PTSUNNY   75  64  69 CALM      29.77S
PLATTEVILLE    MOSUNNY   73  70  88 SW8       29.82R
$$

WIZ056-057-062-063-064-067-068-021400-
SOUTH CENTRAL WISCONSIN

CITY           SKY/WX    TMP DP  RH WIND       PRES   REMARKS
REEDSBURG      PTSUNNY   73  69  87 SW12      29.75S
BARABOO/DELLS  PTSUNNY   73  67  81 SW14G21   29.75S
LONE ROCK      NOT AVBL
MINERAL POINT  MOSUNNY   73  66  78 SW8       29.81S
MADISON        PTSUNNY   76  68  76 SW8       29.78R
MIDDLETON      MOSUNNY   76  68  77 W13G18    29.79R
WATERTOWN      SUNNY     72  72 100 SW8       29.78S
MONROE         SUNNY     72  68  88 SW16      29.82R
JANESVILLE     PTSUNNY   73  72  94 SW12      29.80F
$$

WIZ051-052-058>065-066-070>072-021400-
SOUTHEAST WISCONSIN

CITY           SKY/WX    TMP DP  RH WIND       PRES   REMARKS
MILWAUKEE      MOSUNNY   76  68  76 SW12      29.78F
WAUKESHA       MOSUNNY   73  68  83 SW9       29.80F
MILWAUKEE/TIMM NOT AVBL
RACINE         MOSUNNY   77  68  73 SW14G22   29.80F
BURLINGTON     SUNNY     72  68  88 SW10      29.80F
KENOSHA        SUNNY     77  69  76 SW12      29.81F
FOND DU LAC    MOSUNNY   74  69  85 SW10G24   29.72F
SHEBOYGAN      PTSUNNY   74  69  85 SW10      29.73F
WEST BEND      MOSUNNY   75  66  73 SW13      29.76F
JUNEAU         MOSUNNY   72  69  90 SW12      29.78S
$$

LSZ147-162-021400-
LAKE SUPERIOR

STATION/POSITION TIME  TEMP    WIND        PRES    WAVE
                       AIR SEA DIR/SP/G            HT/PER
                 (UTC) (F)     (DEG/KT/KT) (MB)    (FT/S)
W MID LAKE BUOY  1150   56 54   30/  6/  8 1001.9F   1/ 3
DEVILS ISLAND    1200   66     200/  7/  8 1002.5S
PORT WING        1200   65     190/  5/  6 1004.1S
SAXON HARBOR     1200   67                 1003.0F
$$

LMZ867-665-643>646-021400-
LAKE MICHIGAN

STATION/POSITION TIME  TEMP    WIND        PRES    WAVE
                       AIR SEA DIR/SP/G            HT/PER
                 (UTC) (F)     (DEG/KT/KT) (MB)    (FT/S)
CHAMBERS ISLAND  1200   69     190/  6/ 12 1004.1F
S GREEN BAY BUOY 1200   68 65  230/ 10/ 16 1006.1F
N MID LAKE BUOY  1150   69 68  190/ 14/ 17 1003.5F   2/ 4
NORTHPORT PIER   1200   69     180/  4/  9 1003.7F
ALGOMA LAKESHORE 1212          240/ 13/ 19   N/A
KEWAUNEE LAKESHO 1200   71     190/ 15/ 18 1004.4F
SHEBOYGAN LAKESH 1200   68     190/  8/  9 1007.3F
PORT WASHINGTON  1200   78     240/  7/ 11 1008.5
ATWATER BUOY     1200   73 57  240/ 10/ 14 1009.6F
MILWAUKEE LAKESH 1200   74     240/ 14/ 17   N/A
KENOSHA   LAKESH 1200   74     210/  9/ 13 1009.5F
$$

TC  - TEMPERATURE IN CELSIUS
VSB - VISIBILITY IN STATUTE MILES
WCI - WIND CHILL INDEX
HX  - HEAT INDEX



USA.gov is the U.S. government's official web portal to all federal, state and local government web resources and services.